Year,Month,Day,Hour,Minute,Value (Times are PST for temperature in C)
2015,08,12,00,00,24.00
2015,08,12,00,01,24.10
2015,08,12,00,02,24.20
2015,08,12,00,03,24.30
2015,08,12,00,04,24.40
2015,08,12,00,05,24.60
2015,08,12,00,06,24.60
2015,08,12,00,07,24.70
2015,08,12,00,08,24.80
2015,08,12,00,09,24.80
2015,08,12,00,10,24.90
2015,08,12,00,11,24.90
2015,08,12,00,12,24.90
2015,08,12,00,13,24.90
2015,08,12,00,14,24.90
2015,08,12,00,15,24.90
2015,08,12,00,16,24.90
2015,08,12,00,17,24.90
2015,08,12,00,18,24.90
2015,08,12,00,19,24.90
2015,08,12,00,20,24.80
2015,08,12,00,21,24.80
2015,08,12,00,22,24.70
2015,08,12,00,23,24.70
2015,08,12,00,24,24.60
2015,08,12,00,25,24.60
2015,08,12,00,26,24.50
2015,08,12,00,27,24.50
2015,08,12,00,28,24.50
2015,08,12,00,29,24.50
2015,08,12,00,30,24.50
2015,08,12,00,31,24.50
2015,08,12,00,32,24.40
2015,08,12,00,33,24.40
2015,08,12,00,34,24.40
2015,08,12,00,35,24.40
2015,08,12,00,36,24.40
2015,08,12,00,37,24.30
2015,08,12,00,38,24.30
2015,08,12,00,39,24.30
2015,08,12,00,40,24.30
2015,08,12,00,41,24.30
2015,08,12,00,42,24.30
2015,08,12,00,43,24.30
2015,08,12,00,44,24.40
2015,08,12,00,45,24.40
2015,08,12,00,46,24.40
2015,08,12,00,47,24.50
2015,08,12,00,48,24.50
2015,08,12,00,49,24.60
2015,08,12,00,50,24.60
2015,08,12,00,51,24.60
2015,08,12,00,52,24.60
2015,08,12,00,53,24.60
2015,08,12,00,54,24.60
2015,08,12,00,55,24.60
2015,08,12,00,56,24.60
2015,08,12,00,57,24.50
2015,08,12,00,58,24.50
2015,08,12,00,59,24.50
2015,08,12,01,00,24.40
2015,08,12,01,01,24.40
2015,08,12,01,02,24.40
2015,08,12,01,03,24.30
2015,08,12,01,04,24.30
2015,08,12,01,05,24.30
2015,08,12,01,06,24.20
2015,08,12,01,07,24.20
2015,08,12,01,08,24.20
2015,08,12,01,09,24.20
2015,08,12,01,10,24.10
2015,08,12,01,11,24.10
2015,08,12,01,12,24.10
2015,08,12,01,13,24.00
2015,08,12,01,14,24.00
2015,08,12,01,15,24.00
2015,08,12,01,16,24.00
2015,08,12,01,17,24.00
2015,08,12,01,18,24.10
2015,08,12,01,19,24.10
2015,08,12,01,20,24.10
2015,08,12,01,21,24.10
2015,08,12,01,22,24.10
2015,08,12,01,23,24.10
2015,08,12,01,24,24.10
2015,08,12,01,25,24.10
2015,08,12,01,26,24.00
2015,08,12,01,27,23.90
2015,08,12,01,28,23.90
2015,08,12,01,29,23.80
2015,08,12,01,30,23.80
2015,08,12,01,31,23.80
2015,08,12,01,32,23.70
2015,08,12,01,33,23.70
2015,08,12,01,34,23.70
2015,08,12,01,35,23.70
2015,08,12,01,36,23.70
2015,08,12,01,37,23.70
2015,08,12,01,38,23.60
2015,08,12,01,39,23.60
2015,08,12,01,40,23.60
2015,08,12,01,41,23.60
2015,08,12,01,42,23.60
2015,08,12,01,43,23.70
2015,08,12,01,44,23.70
2015,08,12,01,45,23.70
2015,08,12,01,46,23.70
2015,08,12,01,47,23.70
2015,08,12,01,48,23.80
2015,08,12,01,49,23.80
2015,08,12,01,50,23.90
2015,08,12,01,51,23.90
2015,08,12,01,52,23.90
2015,08,12,01,53,23.90
2015,08,12,01,54,23.90
2015,08,12,01,55,23.90
2015,08,12,01,56,23.80
2015,08,12,01,57,23.80
2015,08,12,01,58,23.70
2015,08,12,01,59,23.60
2015,08,12,02,00,23.60
2015,08,12,02,01,23.50
2015,08,12,02,02,23.40
2015,08,12,02,03,23.40
2015,08,12,02,04,23.30
2015,08,12,02,05,23.20
2015,08,12,02,06,23.10
2015,08,12,02,07,23.00
2015,08,12,02,08,22.90
2015,08,12,02,09,22.80
2015,08,12,02,10,22.80
2015,08,12,02,11,22.80
2015,08,12,02,12,22.70
2015,08,12,02,13,22.70
2015,08,12,02,14,22.70
2015,08,12,02,15,22.70
2015,08,12,02,16,22.70
2015,08,12,02,17,22.60
2015,08,12,02,18,22.60
2015,08,12,02,19,22.60
2015,08,12,02,20,22.60
2015,08,12,02,21,22.60
2015,08,12,02,22,22.60
2015,08,12,02,23,22.60
2015,08,12,02,24,22.60
2015,08,12,02,25,22.60
2015,08,12,02,26,22.50
2015,08,12,02,27,22.50
2015,08,12,02,28,22.50
2015,08,12,02,29,22.40
2015,08,12,02,30,22.40
2015,08,12,02,31,22.40
2015,08,12,02,32,22.30
2015,08,12,02,33,22.30
2015,08,12,02,34,22.30
2015,08,12,02,35,22.20
2015,08,12,02,36,22.20
2015,08,12,02,37,22.10
2015,08,12,02,38,22.10
2015,08,12,02,39,22.00
2015,08,12,02,40,22.00
2015,08,12,02,41,21.90
2015,08,12,02,42,21.80
2015,08,12,02,43,21.80
2015,08,12,02,44,21.70
2015,08,12,02,45,21.70
2015,08,12,02,46,21.60
2015,08,12,02,47,21.60
2015,08,12,02,48,21.50
2015,08,12,02,49,21.50
2015,08,12,02,50,21.40
2015,08,12,02,51,21.40
2015,08,12,02,52,21.40
2015,08,12,02,53,21.40
2015,08,12,02,54,21.40
2015,08,12,02,55,21.40
2015,08,12,02,56,21.40
2015,08,12,02,57,21.50
2015,08,12,02,58,21.50
2015,08,12,02,59,21.60
2015,08,12,03,00,21.70
2015,08,12,03,01,21.70
2015,08,12,03,02,21.80
2015,08,12,03,03,21.80
2015,08,12,03,04,21.90
2015,08,12,03,05,21.90
2015,08,12,03,06,22.00
2015,08,12,03,07,22.10
2015,08,12,03,08,22.10
2015,08,12,03,09,22.20
2015,08,12,03,10,22.20
2015,08,12,03,11,22.20
2015,08,12,03,12,22.30
2015,08,12,03,13,22.30
2015,08,12,03,14,22.30
2015,08,12,03,15,22.40
2015,08,12,03,16,22.40
2015,08,12,03,17,22.50
2015,08,12,03,18,22.50
2015,08,12,03,19,22.50
2015,08,12,03,20,22.50
2015,08,12,03,21,22.60
2015,08,12,03,22,22.60
2015,08,12,03,23,22.60
2015,08,12,03,24,22.60
2015,08,12,03,25,22.60
2015,08,12,03,26,22.50
2015,08,12,03,27,22.60
2015,08,12,03,28,22.60
2015,08,12,03,29,22.60
2015,08,12,03,30,22.60
2015,08,12,03,31,22.60
2015,08,12,03,32,22.60
2015,08,12,03,33,22.50
2015,08,12,03,34,22.50
2015,08,12,03,35,22.40
2015,08,12,03,36,22.40
2015,08,12,03,37,22.40
2015,08,12,03,38,22.30
2015,08,12,03,39,22.30
2015,08,12,03,40,22.20
2015,08,12,03,41,22.20
2015,08,12,03,42,22.10
2015,08,12,03,43,22.10
2015,08,12,03,44,22.10
2015,08,12,03,45,22.00
2015,08,12,03,46,22.00
2015,08,12,03,47,22.00
2015,08,12,03,48,22.00
2015,08,12,03,49,22.00
2015,08,12,03,50,22.00
2015,08,12,03,51,22.00
2015,08,12,03,52,22.00
2015,08,12,03,53,22.00
2015,08,12,03,54,22.00
2015,08,12,03,55,22.00
2015,08,12,03,56,22.00
2015,08,12,03,57,22.00
2015,08,12,03,58,21.90
2015,08,12,03,59,21.90
2015,08,12,04,00,21.90
2015,08,12,04,01,21.90
2015,08,12,04,02,21.90
2015,08,12,04,03,21.90
2015,08,12,04,04,21.90
2015,08,12,04,05,21.90
2015,08,12,04,06,21.90
2015,08,12,04,07,21.80
2015,08,12,04,08,21.80
2015,08,12,04,09,21.80
2015,08,12,04,10,21.80
2015,08,12,04,11,21.80
2015,08,12,04,12,21.80
2015,08,12,04,13,21.80
2015,08,12,04,14,21.70
2015,08,12,04,15,21.70
2015,08,12,04,16,21.50
2015,08,12,04,17,21.40
2015,08,12,04,18,21.20
2015,08,12,04,19,21.10
2015,08,12,04,20,21.00
2015,08,12,04,21,20.80
2015,08,12,04,22,20.70
2015,08,12,04,23,20.50
2015,08,12,04,24,20.30
2015,08,12,04,25,20.10
2015,08,12,04,26,19.90
2015,08,12,04,27,19.80
2015,08,12,04,28,19.60
2015,08,12,04,29,19.50
2015,08,12,04,30,19.40
2015,08,12,04,31,19.30
2015,08,12,04,32,19.30
2015,08,12,04,33,19.30
2015,08,12,04,34,19.30
2015,08,12,04,35,19.30
2015,08,12,04,36,19.40
2015,08,12,04,37,19.40
2015,08,12,04,38,19.50
2015,08,12,04,39,19.50
2015,08,12,04,40,19.60
2015,08,12,04,41,19.70
2015,08,12,04,42,19.70
2015,08,12,04,43,19.70
2015,08,12,04,44,19.70
2015,08,12,04,45,19.70
2015,08,12,04,46,19.60
2015,08,12,04,47,19.60
2015,08,12,04,48,19.60
2015,08,12,04,49,19.50
2015,08,12,04,50,19.50
2015,08,12,04,51,19.40
2015,08,12,04,52,19.40
2015,08,12,04,53,19.30
2015,08,12,04,54,19.40
2015,08,12,04,55,19.40
2015,08,12,04,56,19.40
2015,08,12,04,57,19.30
2015,08,12,04,58,19.30
2015,08,12,04,59,19.30
2015,08,12,05,00,19.20
2015,08,12,05,01,19.10
2015,08,12,05,02,19.00
2015,08,12,05,03,18.90
2015,08,12,05,04,18.80
2015,08,12,05,05,18.70
2015,08,12,05,06,18.70
2015,08,12,05,07,18.60
2015,08,12,05,08,18.40
2015,08,12,05,09,18.40
2015,08,12,05,10,18.30
2015,08,12,05,11,18.30
2015,08,12,05,12,18.30
2015,08,12,05,13,18.20
2015,08,12,05,14,18.20
2015,08,12,05,15,18.20
2015,08,12,05,16,18.20
2015,08,12,05,17,18.20
2015,08,12,05,18,18.20
2015,08,12,05,19,18.20
2015,08,12,05,20,18.10
2015,08,12,05,21,18.10
2015,08,12,05,22,18.10
2015,08,12,05,23,18.10
2015,08,12,05,24,18.00
2015,08,12,05,25,18.00
2015,08,12,05,26,17.90
2015,08,12,05,27,17.90
2015,08,12,05,28,17.90
2015,08,12,05,29,17.80
2015,08,12,05,30,17.80
2015,08,12,05,31,17.80
2015,08,12,05,32,17.80
2015,08,12,05,33,17.90
2015,08,12,05,34,17.90
2015,08,12,05,35,17.90
2015,08,12,05,36,17.90
2015,08,12,05,37,17.90
2015,08,12,05,38,17.90
2015,08,12,05,39,17.90
2015,08,12,05,40,17.80
2015,08,12,05,41,17.80
2015,08,12,05,42,17.80
2015,08,12,05,43,17.70
2015,08,12,05,44,17.70
2015,08,12,05,45,17.70
2015,08,12,05,46,17.60
2015,08,12,05,47,17.60
2015,08,12,05,48,17.60
2015,08,12,05,49,17.50
2015,08,12,05,50,17.50
2015,08,12,05,51,17.50
2015,08,12,05,52,17.50
2015,08,12,05,53,17.50
2015,08,12,05,54,17.50
2015,08,12,05,55,17.50
2015,08,12,05,56,17.50
2015,08,12,05,57,17.60
2015,08,12,05,58,17.60
2015,08,12,05,59,17.60
2015,08,12,06,00,17.60
2015,08,12,06,01,17.50
2015,08,12,06,02,17.50
2015,08,12,06,03,17.50
2015,08,12,06,04,17.40
2015,08,12,06,05,17.40
2015,08,12,06,06,17.40
2015,08,12,06,07,17.40
2015,08,12,06,08,17.40
2015,08,12,06,09,17.30
2015,08,12,06,10,17.40
2015,08,12,06,11,17.40
2015,08,12,06,12,17.40
2015,08,12,06,13,17.30
2015,08,12,06,14,17.40
2015,08,12,06,15,17.40
2015,08,12,06,16,17.40
2015,08,12,06,17,17.40
2015,08,12,06,18,17.40
2015,08,12,06,19,17.40
2015,08,12,06,20,17.40
2015,08,12,06,21,17.40
2015,08,12,06,22,17.40
2015,08,12,06,23,17.40
2015,08,12,06,24,17.40
2015,08,12,06,25,17.40
2015,08,12,06,26,17.30
2015,08,12,06,27,17.30
2015,08,12,06,28,17.30
2015,08,12,06,29,17.30
2015,08,12,06,30,17.20
2015,08,12,06,31,17.20
2015,08,12,06,32,17.20
2015,08,12,06,33,17.20
2015,08,12,06,34,17.20
2015,08,12,06,35,17.30
2015,08,12,06,36,17.30
2015,08,12,06,37,17.40
2015,08,12,06,38,17.50
2015,08,12,06,39,17.50
2015,08,12,06,40,17.60
2015,08,12,06,41,17.70
2015,08,12,06,42,17.80
2015,08,12,06,43,17.90
2015,08,12,06,44,18.00
2015,08,12,06,45,18.10
2015,08,12,06,46,18.30
2015,08,12,06,47,18.40
2015,08,12,06,48,18.50
2015,08,12,06,49,18.70
2015,08,12,06,50,18.80
2015,08,12,06,51,18.90
2015,08,12,06,52,18.90
2015,08,12,06,53,18.90
2015,08,12,06,54,18.90
2015,08,12,06,55,18.80
2015,08,12,06,56,18.80
2015,08,12,06,57,18.80
2015,08,12,06,58,18.80
2015,08,12,06,59,18.80
2015,08,12,07,00,18.80
2015,08,12,07,01,18.80
2015,08,12,07,02,18.80
2015,08,12,07,03,18.80
2015,08,12,07,04,18.80
2015,08,12,07,05,18.80
2015,08,12,07,06,18.80
2015,08,12,07,07,18.80
2015,08,12,07,08,18.80
2015,08,12,07,09,18.90
2015,08,12,07,10,18.90
2015,08,12,07,11,19.00
2015,08,12,07,12,19.00
2015,08,12,07,13,19.10
2015,08,12,07,14,19.20
2015,08,12,07,15,19.20
2015,08,12,07,16,19.30
2015,08,12,07,17,19.30
2015,08,12,07,18,19.30
2015,08,12,07,19,19.40
2015,08,12,07,20,19.40
2015,08,12,07,21,19.40
2015,08,12,07,22,19.40
2015,08,12,07,23,19.40
2015,08,12,07,24,19.40
2015,08,12,07,25,19.40
2015,08,12,07,26,19.40
2015,08,12,07,27,19.40
2015,08,12,07,28,19.40
2015,08,12,07,29,19.40
2015,08,12,07,30,19.50
2015,08,12,07,31,19.50
2015,08,12,07,32,19.50
2015,08,12,07,33,19.60
2015,08,12,07,34,19.60
2015,08,12,07,35,19.60
2015,08,12,07,36,19.70
2015,08,12,07,37,19.70
2015,08,12,07,38,19.70
2015,08,12,07,39,19.80
2015,08,12,07,40,19.80
2015,08,12,07,41,19.80
2015,08,12,07,42,19.80
2015,08,12,07,43,19.80
2015,08,12,07,44,19.90
2015,08,12,07,45,19.90
2015,08,12,07,46,19.90
2015,08,12,07,47,20.00
2015,08,12,07,48,20.00
2015,08,12,07,49,20.00
2015,08,12,07,50,20.10
2015,08,12,07,51,20.10
2015,08,12,07,52,20.20
2015,08,12,07,53,20.20
2015,08,12,07,54,20.20
2015,08,12,07,55,20.30
2015,08,12,07,56,20.30
2015,08,12,07,57,20.30
2015,08,12,07,58,20.30
2015,08,12,07,59,20.40
2015,08,12,08,00,20.40
2015,08,12,08,01,20.40
2015,08,12,08,02,20.50
2015,08,12,08,03,20.60
2015,08,12,08,04,20.60
2015,08,12,08,05,20.60
2015,08,12,08,06,20.70
2015,08,12,08,07,20.70
2015,08,12,08,08,20.80
2015,08,12,08,09,20.80
2015,08,12,08,10,20.90
2015,08,12,08,11,20.90
2015,08,12,08,12,21.00
2015,08,12,08,13,21.00
2015,08,12,08,14,21.10
2015,08,12,08,15,21.10
2015,08,12,08,16,21.20
2015,08,12,08,17,21.20
2015,08,12,08,18,21.30
2015,08,12,08,19,21.30
2015,08,12,08,20,21.40
2015,08,12,08,21,21.50
2015,08,12,08,22,21.50
2015,08,12,08,23,21.60
2015,08,12,08,24,21.60
2015,08,12,08,25,21.70
2015,08,12,08,26,21.70
2015,08,12,08,27,21.80
2015,08,12,08,28,21.90
2015,08,12,08,29,22.00
2015,08,12,08,30,22.00
2015,08,12,08,31,22.10
2015,08,12,08,32,22.20
2015,08,12,08,33,22.30
2015,08,12,08,34,22.40
2015,08,12,08,35,22.40
2015,08,12,08,36,22.50
2015,08,12,08,37,22.50
2015,08,12,08,38,22.50
2015,08,12,08,39,22.60
2015,08,12,08,40,22.60
2015,08,12,08,41,22.60
2015,08,12,08,42,22.70
2015,08,12,08,43,22.70
2015,08,12,08,44,22.70
2015,08,12,08,45,22.80
2015,08,12,08,46,22.80
2015,08,12,08,47,22.80
2015,08,12,08,48,22.90
2015,08,12,08,49,23.00
2015,08,12,08,50,23.00
2015,08,12,08,51,23.10
2015,08,12,08,52,23.20
2015,08,12,08,53,23.20
2015,08,12,08,54,23.30
2015,08,12,08,55,23.40
2015,08,12,08,56,23.40
2015,08,12,08,57,23.40
2015,08,12,08,58,23.40
2015,08,12,08,59,23.50
2015,08,12,09,00,23.50
2015,08,12,09,01,23.50
2015,08,12,09,02,23.60
2015,08,12,09,03,23.60
2015,08,12,09,04,23.60
2015,08,12,09,05,23.70
2015,08,12,09,06,23.70
2015,08,12,09,07,23.70
2015,08,12,09,08,23.80
2015,08,12,09,09,23.80
2015,08,12,09,10,23.90
2015,08,12,09,11,24.00
2015,08,12,09,12,24.10
2015,08,12,09,13,24.20
2015,08,12,09,14,24.30
2015,08,12,09,15,24.30
2015,08,12,09,16,24.30
2015,08,12,09,17,24.40
2015,08,12,09,18,24.40
2015,08,12,09,19,24.40
2015,08,12,09,20,24.50
2015,08,12,09,21,24.50
2015,08,12,09,22,24.60
2015,08,12,09,23,24.60
2015,08,12,09,24,24.70
2015,08,12,09,25,24.70
2015,08,12,09,26,24.80
2015,08,12,09,27,24.80
2015,08,12,09,28,24.80
2015,08,12,09,29,24.90
2015,08,12,09,30,24.90
2015,08,12,09,31,25.00
2015,08,12,09,32,25.10
2015,08,12,09,33,25.10
2015,08,12,09,34,25.20
2015,08,12,09,35,25.20
2015,08,12,09,36,25.20
2015,08,12,09,37,25.20
2015,08,12,09,38,25.10
2015,08,12,09,39,25.00
2015,08,12,09,40,24.90
2015,08,12,09,41,24.80
2015,08,12,09,42,24.80
2015,08,12,09,43,24.80
2015,08,12,09,44,24.80
2015,08,12,09,45,24.90
2015,08,12,09,46,24.90
2015,08,12,09,47,25.00
2015,08,12,09,48,25.00
2015,08,12,09,49,25.10
2015,08,12,09,50,25.20
2015,08,12,09,51,25.20
2015,08,12,09,52,25.20
2015,08,12,09,53,25.20
2015,08,12,09,54,25.20
2015,08,12,09,55,25.20
2015,08,12,09,56,25.20
2015,08,12,09,57,25.20
2015,08,12,09,58,25.30
2015,08,12,09,59,25.40
2015,08,12,10,00,25.40
2015,08,12,10,01,25.50
2015,08,12,10,02,25.60
2015,08,12,10,03,25.60
2015,08,12,10,04,25.70
2015,08,12,10,05,25.80
2015,08,12,10,06,25.80
2015,08,12,10,07,25.80
2015,08,12,10,08,25.80
2015,08,12,10,09,25.90
2015,08,12,10,10,25.80
2015,08,12,10,11,25.80
2015,08,12,10,12,25.80
2015,08,12,10,13,25.80
2015,08,12,10,14,25.80
2015,08,12,10,15,25.80
2015,08,12,10,16,25.80
2015,08,12,10,17,25.80
2015,08,12,10,18,25.90
2015,08,12,10,19,25.90
2015,08,12,10,20,25.90
2015,08,12,10,21,25.90
2015,08,12,10,22,25.90
2015,08,12,10,23,25.80
2015,08,12,10,24,25.80
2015,08,12,10,25,25.80
2015,08,12,10,26,25.80
2015,08,12,10,27,25.70
2015,08,12,10,28,25.60
2015,08,12,10,29,25.60
2015,08,12,10,30,25.70
2015,08,12,10,31,25.60
2015,08,12,10,32,25.60
2015,08,12,10,33,25.60
2015,08,12,10,34,25.60
2015,08,12,10,35,25.70
2015,08,12,10,36,25.70
2015,08,12,10,37,25.70
2015,08,12,10,38,25.70
2015,08,12,10,39,25.80
2015,08,12,10,40,25.80
2015,08,12,10,41,25.90
2015,08,12,10,42,25.90
2015,08,12,10,43,26.00
2015,08,12,10,44,26.00
2015,08,12,10,45,26.00
2015,08,12,10,46,26.10
2015,08,12,10,47,26.20
2015,08,12,10,48,26.30
2015,08,12,10,49,26.40
2015,08,12,10,50,26.40
2015,08,12,10,51,26.40
2015,08,12,10,52,26.40
2015,08,12,10,53,26.40
2015,08,12,10,54,26.40
2015,08,12,10,55,26.40
2015,08,12,10,56,26.50
2015,08,12,10,57,26.50
2015,08,12,10,58,26.60
2015,08,12,10,59,26.70
2015,08,12,11,00,26.70
2015,08,12,11,01,26.60
2015,08,12,11,02,26.60
2015,08,12,11,03,26.70
2015,08,12,11,04,26.70
2015,08,12,11,05,26.70
2015,08,12,11,06,26.60
2015,08,12,11,07,26.60
2015,08,12,11,08,26.60
2015,08,12,11,09,26.60
2015,08,12,11,10,26.60
2015,08,12,11,11,26.70
2015,08,12,11,12,26.80
2015,08,12,11,13,26.90
2015,08,12,11,14,27.10
2015,08,12,11,15,27.20
2015,08,12,11,16,27.30
2015,08,12,11,17,27.30
2015,08,12,11,18,27.30
2015,08,12,11,19,27.30
2015,08,12,11,20,27.30
2015,08,12,11,21,27.30
2015,08,12,11,22,27.30
2015,08,12,11,23,27.30
2015,08,12,11,24,27.20
2015,08,12,11,25,27.20
2015,08,12,11,26,27.20
2015,08,12,11,27,27.30
2015,08,12,11,28,27.50
2015,08,12,11,29,27.50
2015,08,12,11,30,27.40
2015,08,12,11,31,27.40
2015,08,12,11,32,27.40
2015,08,12,11,33,27.40
2015,08,12,11,34,27.60
2015,08,12,11,35,27.70
2015,08,12,11,36,27.90
2015,08,12,11,37,28.10
2015,08,12,11,38,28.10
2015,08,12,11,39,28.20
2015,08,12,11,40,28.30
2015,08,12,11,41,28.20
2015,08,12,11,42,28.10
2015,08,12,11,43,27.90
2015,08,12,11,44,27.90
2015,08,12,11,45,27.70
2015,08,12,11,46,27.70
2015,08,12,11,47,27.70
2015,08,12,11,48,27.80
2015,08,12,11,49,27.80
2015,08,12,11,50,27.90
2015,08,12,11,51,28.00
2015,08,12,11,52,28.10
2015,08,12,11,53,28.20
2015,08,12,11,54,28.20
2015,08,12,11,55,28.30
2015,08,12,11,56,28.40
2015,08,12,11,57,28.50
2015,08,12,11,58,28.60
2015,08,12,11,59,28.60
2015,08,12,12,00,28.60
2015,08,12,12,01,28.50
2015,08,12,12,02,28.40
2015,08,12,12,03,28.30
2015,08,12,12,04,28.20
2015,08,12,12,05,28.20
2015,08,12,12,06,28.20
2015,08,12,12,07,28.20
2015,08,12,12,08,28.30
2015,08,12,12,09,28.30
2015,08,12,12,10,28.30
2015,08,12,12,11,28.20
2015,08,12,12,12,28.20
2015,08,12,12,13,28.20
2015,08,12,12,14,28.30
2015,08,12,12,15,28.30
2015,08,12,12,16,28.30
2015,08,12,12,17,28.30
2015,08,12,12,18,28.40
2015,08,12,12,19,28.40
2015,08,12,12,20,28.50
2015,08,12,12,21,28.50
2015,08,12,12,22,28.40
2015,08,12,12,23,28.30
2015,08,12,12,24,28.30
2015,08,12,12,25,28.40
2015,08,12,12,26,28.50
2015,08,12,12,27,28.50
2015,08,12,12,28,28.60
2015,08,12,12,29,28.60
2015,08,12,12,30,28.60
2015,08,12,12,31,28.70
2015,08,12,12,32,28.70
2015,08,12,12,33,28.80
2015,08,12,12,34,28.80
2015,08,12,12,35,28.80
2015,08,12,12,36,28.80
2015,08,12,12,37,28.80
2015,08,12,12,38,29.00
2015,08,12,12,39,29.00
2015,08,12,12,40,29.10
2015,08,12,12,41,29.10
2015,08,12,12,42,29.10
2015,08,12,12,43,29.00
2015,08,12,12,44,29.00
2015,08,12,12,45,29.00
2015,08,12,12,46,29.00
2015,08,12,12,47,28.80
2015,08,12,12,48,28.60
2015,08,12,12,49,28.40
2015,08,12,12,50,28.30
2015,08,12,12,51,28.20
2015,08,12,12,52,28.30
2015,08,12,12,53,28.40
2015,08,12,12,54,28.50
2015,08,12,12,55,28.60
2015,08,12,12,56,28.60
2015,08,12,12,57,28.40
2015,08,12,12,58,28.30
2015,08,12,12,59,28.20
2015,08,12,13,00,28.20
2015,08,12,13,01,28.10
2015,08,12,13,02,28.10
2015,08,12,13,03,28.00
2015,08,12,13,04,27.90
2015,08,12,13,05,27.80
2015,08,12,13,06,27.50
2015,08,12,13,07,27.30
2015,08,12,13,08,27.00
2015,08,12,13,09,26.90
2015,08,12,13,10,26.90
2015,08,12,13,11,26.90
2015,08,12,13,12,26.90
2015,08,12,13,13,26.90
2015,08,12,13,14,26.80
2015,08,12,13,15,26.70
2015,08,12,13,16,26.60
2015,08,12,13,17,26.60
2015,08,12,13,18,26.60
2015,08,12,13,19,26.60
2015,08,12,13,20,26.60
2015,08,12,13,21,26.80
2015,08,12,13,22,26.90
2015,08,12,13,23,26.90
2015,08,12,13,24,26.80
2015,08,12,13,25,26.80
2015,08,12,13,26,26.70
2015,08,12,13,27,26.70
2015,08,12,13,28,26.80
2015,08,12,13,29,26.60
2015,08,12,13,30,26.60
2015,08,12,13,31,26.60
2015,08,12,13,32,26.70
2015,08,12,13,33,26.90
2015,08,12,13,34,27.00
2015,08,12,13,35,27.10
2015,08,12,13,36,27.30
2015,08,12,13,37,27.30
2015,08,12,13,38,27.30
2015,08,12,13,39,27.30
2015,08,12,13,40,27.30
2015,08,12,13,41,27.20
2015,08,12,13,42,27.10
2015,08,12,13,43,27.10
2015,08,12,13,44,27.20
2015,08,12,13,45,27.20
2015,08,12,13,46,27.30
2015,08,12,13,47,27.30
2015,08,12,13,48,27.40
2015,08,12,13,49,27.50
2015,08,12,13,50,27.40
2015,08,12,13,51,27.40
2015,08,12,13,52,27.30
2015,08,12,13,53,27.30
2015,08,12,13,54,27.40
2015,08,12,13,55,27.50
2015,08,12,13,56,27.50
2015,08,12,13,57,27.50
2015,08,12,13,58,27.40
2015,08,12,13,59,27.50
2015,08,12,14,00,27.60
2015,08,12,14,01,27.80
2015,08,12,14,02,28.10
2015,08,12,14,03,28.20
2015,08,12,14,04,28.10
2015,08,12,14,05,28.10
2015,08,12,14,06,28.00
2015,08,12,14,07,27.90
2015,08,12,14,08,27.80
2015,08,12,14,09,27.70
2015,08,12,14,10,27.60
2015,08,12,14,11,27.50
2015,08,12,14,12,27.60
2015,08,12,14,13,27.60
2015,08,12,14,14,27.50
2015,08,12,14,15,27.40
2015,08,12,14,16,27.40
2015,08,12,14,17,27.30
2015,08,12,14,18,27.40
2015,08,12,14,19,27.50
2015,08,12,14,20,27.60
2015,08,12,14,21,27.70
2015,08,12,14,22,27.60
2015,08,12,14,23,27.60
2015,08,12,14,24,27.50
2015,08,12,14,25,27.50
2015,08,12,14,26,27.50
2015,08,12,14,27,27.60
2015,08,12,14,28,27.50
2015,08,12,14,29,27.50
2015,08,12,14,30,27.50
2015,08,12,14,31,27.40
2015,08,12,14,32,27.40
2015,08,12,14,33,27.40
2015,08,12,14,34,27.50
2015,08,12,14,35,27.60
2015,08,12,14,36,27.70
2015,08,12,14,37,27.80
2015,08,12,14,38,27.90
2015,08,12,14,39,27.90
2015,08,12,14,40,28.00
2015,08,12,14,41,28.10
2015,08,12,14,42,28.10
2015,08,12,14,43,28.20
2015,08,12,14,44,28.30
2015,08,12,14,45,28.40
2015,08,12,14,46,28.50
2015,08,12,14,47,28.50
2015,08,12,14,48,28.50
2015,08,12,14,49,28.40
2015,08,12,14,50,28.50
2015,08,12,14,51,28.50
2015,08,12,14,52,28.60
2015,08,12,14,53,28.70
2015,08,12,14,54,28.80
2015,08,12,14,55,28.90
2015,08,12,14,56,28.80
2015,08,12,14,57,28.90
2015,08,12,14,58,28.90
2015,08,12,14,59,28.80
2015,08,12,15,00,28.70
2015,08,12,15,01,28.70
2015,08,12,15,02,28.70
2015,08,12,15,03,28.60
2015,08,12,15,04,28.60
2015,08,12,15,05,28.60
2015,08,12,15,06,28.70
2015,08,12,15,07,28.80
2015,08,12,15,08,28.80
2015,08,12,15,09,28.80
2015,08,12,15,10,28.90
2015,08,12,15,11,28.90
2015,08,12,15,12,29.00
2015,08,12,15,13,29.00
2015,08,12,15,14,29.00
2015,08,12,15,15,29.00
2015,08,12,15,16,29.00
2015,08,12,15,17,29.10
2015,08,12,15,18,29.10
2015,08,12,15,19,29.10
2015,08,12,15,20,29.10
2015,08,12,15,21,29.20
2015,08,12,15,22,29.30
2015,08,12,15,23,29.30
2015,08,12,15,24,29.20
2015,08,12,15,25,29.20
2015,08,12,15,26,29.10
2015,08,12,15,27,29.10
2015,08,12,15,28,29.10
2015,08,12,15,29,29.10
2015,08,12,15,30,29.10
2015,08,12,15,31,29.10
2015,08,12,15,32,29.10
2015,08,12,15,33,29.10
2015,08,12,15,34,29.20
2015,08,12,15,35,29.20
2015,08,12,15,36,29.20
2015,08,12,15,37,29.20
2015,08,12,15,38,29.30
2015,08,12,15,39,29.40
2015,08,12,15,40,29.50
2015,08,12,15,41,29.50
2015,08,12,15,42,29.60
2015,08,12,15,43,29.70
2015,08,12,15,44,29.80
2015,08,12,15,45,29.80
2015,08,12,15,46,30.00
2015,08,12,15,47,30.10
2015,08,12,15,48,30.20
2015,08,12,15,49,30.30
2015,08,12,15,50,30.30
2015,08,12,15,51,30.20
2015,08,12,15,52,30.20
2015,08,12,15,53,30.20
2015,08,12,15,54,30.20
2015,08,12,15,55,30.20
2015,08,12,15,56,30.30
2015,08,12,15,57,30.20
2015,08,12,15,58,30.10
2015,08,12,15,59,30.00
2015,08,12,16,00,29.80
2015,08,12,16,01,29.80
2015,08,12,16,02,29.70
2015,08,12,16,03,29.70
2015,08,12,16,04,29.70
2015,08,12,16,05,29.70
2015,08,12,16,06,29.60
2015,08,12,16,07,29.50
2015,08,12,16,08,29.40
2015,08,12,16,09,29.50
2015,08,12,16,10,29.50
2015,08,12,16,11,29.60
2015,08,12,16,12,29.60
2015,08,12,16,13,29.60
2015,08,12,16,14,29.60
2015,08,12,16,15,29.60
2015,08,12,16,16,29.50
2015,08,12,16,17,29.40
2015,08,12,16,18,29.30
2015,08,12,16,19,29.20
2015,08,12,16,20,29.10
2015,08,12,16,21,29.10
2015,08,12,16,22,29.10
2015,08,12,16,23,29.20
2015,08,12,16,24,29.20
2015,08,12,16,25,29.20
2015,08,12,16,26,29.20
2015,08,12,16,27,29.20
2015,08,12,16,28,29.20
2015,08,12,16,29,29.10
2015,08,12,16,30,29.20
2015,08,12,16,31,29.20
2015,08,12,16,32,29.20
2015,08,12,16,33,29.10
2015,08,12,16,34,29.20
2015,08,12,16,35,29.20
2015,08,12,16,36,29.30
2015,08,12,16,37,29.30
2015,08,12,16,38,29.30
2015,08,12,16,39,29.40
2015,08,12,16,40,29.50
2015,08,12,16,41,29.50
2015,08,12,16,42,29.50
2015,08,12,16,43,29.50
2015,08,12,16,44,29.50
2015,08,12,16,45,29.40
2015,08,12,16,46,29.50
2015,08,12,16,47,29.60
2015,08,12,16,48,29.70
2015,08,12,16,49,29.70
2015,08,12,16,50,29.70
2015,08,12,16,51,29.60
2015,08,12,16,52,29.50
2015,08,12,16,53,29.40
2015,08,12,16,54,29.40
2015,08,12,16,55,29.40
2015,08,12,16,56,29.40
2015,08,12,16,57,29.50
2015,08,12,16,58,29.50
2015,08,12,16,59,29.50
2015,08,12,17,00,29.60
2015,08,12,17,01,29.60
2015,08,12,17,02,29.60
2015,08,12,17,03,29.50
2015,08,12,17,04,29.50
2015,08,12,17,05,29.40
2015,08,12,17,06,29.40
2015,08,12,17,07,29.30
2015,08,12,17,08,29.30
2015,08,12,17,09,29.20
2015,08,12,17,10,29.30
2015,08,12,17,11,29.30
2015,08,12,17,12,29.30
2015,08,12,17,13,29.30
2015,08,12,17,14,29.30
2015,08,12,17,15,29.30
2015,08,12,17,16,29.30
2015,08,12,17,17,29.30
2015,08,12,17,18,29.30
2015,08,12,17,19,29.20